TimeMDT,TemperatureF,Dew PointF,Humidity,Sea Level PressureIn,VisibilityMPH,Wind Direction,Wind SpeedMPH,Gust SpeedMPH,PrecipitationIn,Events,Conditions,WindDirDegrees,DateUTC
12:53 AM,41.0,30.0,65,30.13,10.0,SSE,5.8,-,N/A,,Partly Cloudy,160,2013-03-30 06:53:00
1:53 AM,39.9,30.0,68,30.13,10.0,SSE,8.1,-,N/A,,Clear,160,2013-03-30 07:53:00
2:53 AM,37.9,28.9,70,30.14,10.0,Calm,Calm,-,N/A,,Clear,0,2013-03-30 08:53:00
3:53 AM,37.9,28.9,70,30.14,10.0,Calm,Calm,-,N/A,,Scattered Clouds,0,2013-03-30 09:53:00
4:53 AM,35.1,28.0,76,30.15,10.0,Calm,Calm,-,N/A,,Clear,0,2013-03-30 10:53:00
5:53 AM,34.0,28.0,79,30.16,10.0,Calm,Calm,-,N/A,,Clear,0,2013-03-30 11:53:00
6:53 AM,32.0,27.0,82,30.18,10.0,Variable,3.5,-,N/A,,Clear,0,2013-03-30 12:53:00
7:53 AM,37.0,28.9,73,30.19,10.0,Calm,Calm,-,N/A,,Clear,0,2013-03-30 13:53:00
8:53 AM,39.0,30.0,70,30.19,10.0,Calm,Calm,-,N/A,,Clear,0,2013-03-30 14:53:00
9:53 AM,46.0,30.9,56,30.16,5.0,Calm,Calm,-,N/A,,Haze,0,2013-03-30 15:53:00
10:53 AM,51.1,30.9,46,30.13,10.0,WNW,3.5,-,N/A,,Clear,290,2013-03-30 16:53:00
11:53 AM,57.0,28.9,34,30.09,10.0,Variable,5.8,-,N/A,,Clear,0,2013-03-30 17:53:00
12:53 PM,62.1,25.0,24,30.06,10.0,WNW,9.2,17.3,N/A,,Partly Cloudy,300,2013-03-30 18:53:00
1:53 PM,63.0,24.1,23,30.03,10.0,West,16.1,20.7,N/A,,Partly Cloudy,260,2013-03-30 19:53:00
2:53 PM,64.0,23.0,21,30.01,10.0,West,17.3,24.2,N/A,,Mostly Cloudy,260,2013-03-30 20:53:00
3:53 PM,63.0,17.1,17,29.99,10.0,WNW,9.2,18.4,N/A,,Mostly Cloudy,290,2013-03-30 21:53:00
4:53 PM,66.9,16.0,14,29.98,10.0,West,17.3,26.5,N/A,,Scattered Clouds,260,2013-03-30 22:53:00
5:53 PM,62.1,23.0,22,30.01,10.0,North,23.0,34.5,N/A,,Partly Cloudy,350,2013-03-30 23:53:00
6:53 PM,61.0,21.9,22,30.03,10.0,NNW,9.2,21.9,N/A,,Clear,340,2013-03-31 00:53:00
7:53 PM,57.0,25.0,29,30.05,10.0,North,15.0,23.0,N/A,,Mostly Cloudy,360,2013-03-31 01:53:00
8:53 PM,55.9,26.1,32,30.07,10.0,West,6.9,-,N/A,,Overcast,260,2013-03-31 02:53:00
9:53 PM,54.0,25.0,33,30.07,10.0,North,5.8,-,N/A,,Scattered Clouds,360,2013-03-31 03:53:00
10:53 PM,46.9,26.1,44,30.09,10.0,East,5.8,-,N/A,,Clear,100,2013-03-31 04:53:00
11:53 PM,42.1,26.1,53,30.09,10.0,East,4.6,-,N/A,,Clear,90,2013-03-31 05:53:00